Time,TemperatureF,DewpointF,PressureIn,WindDirection,WindDirectionDegrees,WindSpeedMPH,WindSpeedGustMPH,Humidity,HourlyPrecipIn,Conditions,Clouds,dailyrainin,SoftwareType,DateUTC
2013-11-05 00:01:00,42.6,28.0,30.36,South,181,18.0,22.0,56,0.00,,,0.00,meteohub,2013-11-05 05:01:00,
2013-11-05 00:02:00,42.6,28.0,30.36,SSE,167,16.0,22.0,56,0.00,,,0.00,meteohub,2013-11-05 05:02:00,
2013-11-05 00:03:00,42.4,27.9,30.36,SSE,165,13.0,22.0,56,0.00,,,0.00,meteohub,2013-11-05 05:03:00,
2013-11-05 00:08:00,42.4,30.0,30.36,South,173,9.0,22.0,61,0.00,,,0.00,meteohub,2013-11-05 05:08:00,
2013-11-05 00:12:00,42.3,28.6,30.36,SSE,164,13.0,22.0,58,0.00,,,0.00,meteohub,2013-11-05 05:12:00,
2013-11-05 00:17:00,42.3,28.6,30.35,SSE,166,13.0,22.0,58,0.00,,,0.00,meteohub,2013-11-05 05:17:00,
2013-11-05 00:22:00,42.3,28.0,30.36,SSE,165,13.0,22.0,57,0.00,,,0.00,meteohub,2013-11-05 05:22:00,
2013-11-05 00:27:00,42.4,28.8,30.36,South,171,15.0,22.0,58,0.00,,,0.00,meteohub,2013-11-05 05:27:00,
2013-11-05 00:32:00,42.4,28.8,30.36,South,177,19.0,21.0,58,0.00,,,0.00,meteohub,2013-11-05 05:32:00,
2013-11-05 00:37:00,42.4,28.8,30.36,SSE,161,17.0,24.0,58,0.00,,,0.00,meteohub,2013-11-05 05:37:00,
2013-11-05 00:42:00,42.6,28.9,30.36,South,181,11.0,24.0,58,0.00,,,0.00,meteohub,2013-11-05 05:42:00,
2013-11-05 00:47:00,42.6,28.9,30.36,SSE,165,13.0,24.0,58,0.00,,,0.00,meteohub,2013-11-05 05:47:00,
2013-11-05 00:52:00,43.0,29.7,30.36,South,173,17.0,21.0,59,0.00,,,0.00,meteohub,2013-11-05 05:52:00,
2013-11-05 00:57:00,43.0,29.7,30.36,South,182,13.0,22.0,59,0.00,,,0.00,meteohub,2013-11-05 05:57:00,
2013-11-05 01:02:00,43.0,29.7,30.36,South,182,15.0,22.0,59,0.00,,,0.00,meteohub,2013-11-05 06:02:00,
2013-11-05 01:07:00,43.0,29.7,30.36,South,175,19.0,22.0,59,0.00,,,0.00,meteohub,2013-11-05 06:07:00,
2013-11-05 01:12:00,42.8,29.5,30.35,SSE,166,11.0,22.0,59,0.00,,,0.00,meteohub,2013-11-05 06:12:00,
2013-11-05 01:17:00,43.0,29.7,30.36,South,175,16.0,22.0,59,0.00,,,0.00,meteohub,2013-11-05 06:17:00,
2013-11-05 01:22:00,43.2,29.8,30.35,South,189,18.0,22.0,59,0.00,,,0.00,meteohub,2013-11-05 06:22:00,
2013-11-05 01:27:00,43.3,30.0,30.35,SSE,162,14.0,25.0,59,0.00,,,0.00,meteohub,2013-11-05 06:27:00,
2013-11-05 01:32:00,43.3,30.0,30.36,SSE,155,10.0,25.0,59,0.00,,,0.00,meteohub,2013-11-05 06:32:00,
2013-11-05 01:37:00,43.3,30.0,30.36,SSE,168,15.0,25.0,59,0.00,,,0.00,meteohub,2013-11-05 06:37:00,
2013-11-05 01:42:00,43.3,30.0,30.36,South,173,13.0,26.0,59,0.00,,,0.00,meteohub,2013-11-05 06:42:00,
2013-11-05 01:47:00,43.3,30.0,30.36,South,173,18.0,26.0,59,0.00,,,0.00,meteohub,2013-11-05 06:47:00,
2013-11-05 01:52:00,43.2,29.8,30.36,South,174,16.0,26.0,59,0.00,,,0.00,meteohub,2013-11-05 06:52:00,
2013-11-05 01:57:00,43.2,30.2,30.36,South,172,12.0,22.0,60,0.00,,,0.00,meteohub,2013-11-05 06:57:00,
2013-11-05 02:02:00,43.2,29.8,30.36,South,170,14.0,22.0,59,0.00,,,0.00,meteohub,2013-11-05 07:02:00,
2013-11-05 02:07:00,43.2,30.2,30.36,South,178,15.0,25.0,60,0.00,,,0.00,meteohub,2013-11-05 07:07:00,
2013-11-05 02:12:00,43.3,30.4,30.36,South,179,12.0,25.0,60,0.00,,,0.00,meteohub,2013-11-05 07:12:00,
2013-11-05 02:17:00,43.3,30.4,30.36,South,170,10.0,23.0,60,0.00,,,0.00,meteohub,2013-11-05 07:17:00,
2013-11-05 02:22:00,43.3,30.7,30.37,South,188,14.0,23.0,61,0.00,,,0.00,meteohub,2013-11-05 07:22:00,
2013-11-05 02:27:00,43.5,30.6,30.36,South,180,16.0,23.0,60,0.00,,,0.00,meteohub,2013-11-05 07:27:00,
2013-11-05 02:32:00,43.5,30.6,30.37,SSE,152,10.0,20.0,60,0.00,,,0.00,meteohub,2013-11-05 07:32:00,
2013-11-05 02:37:00,43.5,30.6,30.37,South,191,16.0,22.0,60,0.00,,,0.00,meteohub,2013-11-05 07:37:00,
2013-11-05 02:42:00,43.5,30.6,30.37,South,184,20.0,22.0,60,0.00,,,0.00,meteohub,2013-11-05 07:42:00,
2013-11-05 02:47:00,43.5,30.6,30.37,South,191,14.0,23.0,60,0.00,,,0.00,meteohub,2013-11-05 07:47:00,
2013-11-05 02:52:00,43.5,30.6,30.36,SSE,165,13.0,23.0,60,0.00,,,0.00,meteohub,2013-11-05 07:52:00,
2013-11-05 02:57:00,43.5,30.6,30.37,South,172,13.0,23.0,60,0.00,,,0.00,meteohub,2013-11-05 07:57:00,
2013-11-05 03:02:00,43.5,30.6,30.37,SSW,194,12.0,21.0,60,0.00,,,0.00,meteohub,2013-11-05 08:02:00,
2013-11-05 03:07:00,43.5,30.9,30.37,South,180,20.0,21.0,61,0.00,,,0.00,meteohub,2013-11-05 08:07:00,
2013-11-05 03:12:00,43.5,30.9,30.37,SSE,164,17.0,23.0,61,0.00,,,0.00,meteohub,2013-11-05 08:12:00,
2013-11-05 03:17:00,43.5,30.9,30.37,SSW,201,14.0,23.0,61,0.00,,,0.00,meteohub,2013-11-05 08:17:00,
2013-11-05 03:22:00,43.5,30.9,30.36,South,189,19.0,24.0,61,0.00,,,0.00,meteohub,2013-11-05 08:22:00,
2013-11-05 03:27:00,43.5,31.3,30.37,South,170,19.0,24.0,62,0.00,,,0.00,meteohub,2013-11-05 08:27:00,
2013-11-05 03:32:00,43.5,30.9,30.36,South,175,15.0,24.0,61,0.00,,,0.00,meteohub,2013-11-05 08:32:00,
2013-11-05 03:37:00,43.5,31.3,30.36,South,190,22.0,24.0,62,0.00,,,0.00,meteohub,2013-11-05 08:37:00,
2013-11-05 03:42:00,43.5,30.9,30.36,South,177,18.0,24.0,61,0.00,,,0.00,meteohub,2013-11-05 08:42:00,
2013-11-05 03:47:00,43.5,31.3,30.36,SSE,159,17.0,24.0,62,0.00,,,0.00,meteohub,2013-11-05 08:47:00,
2013-11-05 03:52:00,43.7,31.5,30.36,South,182,18.0,24.0,62,0.00,,,0.00,meteohub,2013-11-05 08:52:00,
2013-11-05 03:57:00,43.5,31.3,30.36,SSE,162,12.0,26.0,62,0.00,,,0.00,meteohub,2013-11-05 08:57:00,
2013-11-05 04:02:00,43.5,31.3,30.37,South,183,16.0,26.0,62,0.00,,,0.00,meteohub,2013-11-05 09:02:00,
2013-11-05 04:07:00,43.5,31.3,30.37,SSE,161,18.0,26.0,62,0.00,,,0.00,meteohub,2013-11-05 09:07:00,
2013-11-05 04:12:00,43.5,31.3,30.37,South,182,12.0,26.0,62,0.00,,,0.00,meteohub,2013-11-05 09:12:00,
2013-11-05 04:17:00,43.5,31.3,30.37,South,173,16.0,26.0,62,0.00,,,0.00,meteohub,2013-11-05 09:17:00,
2013-11-05 04:22:00,43.5,31.3,30.37,South,175,13.0,25.0,62,0.00,,,0.00,meteohub,2013-11-05 09:22:00,
2013-11-05 04:27:00,43.5,31.3,30.37,South,177,14.0,25.0,62,0.00,,,0.00,meteohub,2013-11-05 09:27:00,
2013-11-05 04:32:00,43.5,31.3,30.37,SSE,157,14.0,25.0,62,0.00,,,0.00,meteohub,2013-11-05 09:32:00,
2013-11-05 04:37:00,43.5,31.3,30.37,South,182,16.0,25.0,62,0.00,,,0.00,meteohub,2013-11-05 09:37:00,
2013-11-05 04:42:00,43.7,31.5,30.38,South,178,19.0,25.0,62,0.00,,,0.00,meteohub,2013-11-05 09:42:00,
2013-11-05 04:47:00,43.7,31.5,30.37,SSE,161,18.0,24.0,62,0.00,,,0.00,meteohub,2013-11-05 09:47:00,
2013-11-05 04:52:00,43.5,31.8,30.37,SSE,165,15.0,24.0,63,0.00,,,0.00,meteohub,2013-11-05 09:52:00,
2013-11-05 04:57:00,43.5,31.8,30.38,South,170,14.0,22.0,63,0.00,,,0.00,meteohub,2013-11-05 09:57:00,
2013-11-05 05:02:00,43.3,31.6,30.38,South,173,15.0,22.0,63,0.00,,,0.00,meteohub,2013-11-05 10:02:00,
2013-11-05 05:07:00,43.5,31.8,30.37,South,185,16.0,22.0,63,0.00,,,0.00,meteohub,2013-11-05 10:07:00,
2013-11-05 05:12:00,43.5,31.3,30.37,South,179,13.0,23.0,62,0.00,,,0.00,meteohub,2013-11-05 10:12:00,
2013-11-05 05:17:00,43.5,31.8,30.38,South,175,17.0,24.0,63,0.00,,,0.00,meteohub,2013-11-05 10:17:00,
2013-11-05 05:22:00,43.5,31.8,30.38,SSE,166,22.0,24.0,63,0.00,,,0.00,meteohub,2013-11-05 10:22:00,
2013-11-05 05:27:00,43.5,31.8,30.37,South,178,17.0,26.0,63,0.00,,,0.00,meteohub,2013-11-05 10:27:00,
2013-11-05 05:32:00,43.7,32.4,30.37,South,179,11.0,26.0,64,0.00,,,0.00,meteohub,2013-11-05 10:32:00,
2013-11-05 05:37:00,43.7,32.0,30.37,South,169,14.0,26.0,63,0.00,,,0.00,meteohub,2013-11-05 10:37:00,
2013-11-05 05:42:00,43.5,31.8,30.38,South,179,16.0,24.0,63,0.00,,,0.00,meteohub,2013-11-05 10:42:00,
2013-11-05 05:47:00,43.5,32.2,30.38,SSW,196,14.0,24.0,64,0.00,,,0.00,meteohub,2013-11-05 10:47:00,
2013-11-05 05:52:00,43.5,31.8,30.38,South,180,15.0,24.0,63,0.00,,,0.00,meteohub,2013-11-05 10:52:00,
2013-11-05 05:57:00,43.3,32.0,30.38,South,188,19.0,22.0,64,0.00,,,0.00,meteohub,2013-11-05 10:57:00,
2013-11-05 06:02:00,43.3,32.0,30.38,South,186,20.0,22.0,64,0.00,,,0.00,meteohub,2013-11-05 11:02:00,
2013-11-05 06:07:00,43.3,32.0,30.38,South,191,17.0,22.0,64,0.00,,,0.00,meteohub,2013-11-05 11:07:00,
2013-11-05 06:12:00,43.3,32.0,30.38,SSW,194,12.0,23.0,64,0.00,,,0.00,meteohub,2013-11-05 11:12:00,
2013-11-05 06:17:00,43.5,32.2,30.37,South,171,15.0,23.0,64,0.00,,,0.00,meteohub,2013-11-05 11:17:00,
2013-11-05 06:22:00,44.1,32.7,30.38,South,177,15.0,28.0,64,0.00,,,0.00,meteohub,2013-11-05 11:22:00,
2013-11-05 06:27:00,44.2,32.4,30.37,SSE,166,17.0,28.0,63,0.00,,,0.00,meteohub,2013-11-05 11:27:00,
2013-11-05 06:32:00,44.4,33.1,30.38,SSW,201,16.0,27.0,64,0.00,,,0.00,meteohub,2013-11-05 11:32:00,
2013-11-05 06:37:00,44.4,32.5,30.38,South,173,12.0,27.0,63,0.00,,,0.00,meteohub,2013-11-05 11:37:00,
2013-11-05 06:42:00,44.4,32.5,30.38,SSE,166,19.0,23.0,63,0.00,,,0.00,meteohub,2013-11-05 11:42:00,
2013-11-05 06:47:00,44.4,32.5,30.37,SSE,155,17.0,24.0,63,0.00,,,0.00,meteohub,2013-11-05 11:47:00,
2013-11-05 06:52:00,44.4,32.5,30.37,SSW,196,22.0,24.0,63,0.00,,,0.00,meteohub,2013-11-05 11:52:00,
2013-11-05 06:57:00,44.6,32.7,30.38,South,186,15.0,24.0,63,0.00,,,0.00,meteohub,2013-11-05 11:57:00,
2013-11-05 07:02:00,44.4,32.5,30.38,South,175,11.0,24.0,63,0.00,,,0.00,meteohub,2013-11-05 12:02:00,
2013-11-05 07:07:00,44.2,32.9,30.38,South,186,19.0,26.0,64,0.00,,,0.00,meteohub,2013-11-05 12:07:00,
2013-11-05 07:12:00,44.2,32.9,30.38,South,170,12.0,26.0,64,0.00,,,0.00,meteohub,2013-11-05 12:12:00,
2013-11-05 07:17:00,44.1,32.7,30.38,SSW,197,17.0,26.0,64,0.00,,,0.00,meteohub,2013-11-05 12:17:00,
2013-11-05 07:22:00,44.2,32.9,30.38,South,171,11.0,26.0,64,0.00,,,0.00,meteohub,2013-11-05 12:22:00,
2013-11-05 07:27:00,44.4,33.1,30.38,SSW,193,19.0,24.0,64,0.00,,,0.00,meteohub,2013-11-05 12:27:00,
2013-11-05 07:32:00,44.6,33.3,30.38,SSE,165,12.0,24.0,64,0.00,,,0.00,meteohub,2013-11-05 12:32:00,
2013-11-05 07:37:00,44.8,33.8,30.38,South,186,12.0,24.0,65,0.00,,,0.00,meteohub,2013-11-05 12:37:00,
2013-11-05 07:42:00,44.8,33.3,30.38,SSE,168,18.0,26.0,64,0.00,,,0.00,meteohub,2013-11-05 12:42:00,
2013-11-05 07:47:00,45.0,33.4,30.39,SSE,153,19.0,26.0,64,0.00,,,0.00,meteohub,2013-11-05 12:47:00,
2013-11-05 07:53:00,45.0,33.4,30.40,South,183,13.0,26.0,64,0.00,,,0.00,meteohub,2013-11-05 12:53:00,
2013-11-05 07:58:00,44.8,33.3,30.40,SSW,196,14.0,21.0,64,0.00,,,0.00,meteohub,2013-11-05 12:58:00,
2013-11-05 08:03:00,44.4,33.1,30.40,SSE,159,16.0,26.0,64,0.00,,,0.00,meteohub,2013-11-05 13:03:00,
2013-11-05 08:09:00,44.2,33.3,30.40,SSE,163,15.0,26.0,65,0.00,,,0.00,meteohub,2013-11-05 13:09:00,
2013-11-05 08:14:00,44.6,33.3,30.40,SSE,165,14.0,26.0,64,0.00,,,0.00,meteohub,2013-11-05 13:14:00,
2013-11-05 08:19:00,45.0,33.4,30.40,SE,141,14.0,26.0,64,0.00,,,0.00,meteohub,2013-11-05 13:19:00,
2013-11-05 08:24:00,45.1,33.6,30.40,SSW,201,20.0,24.0,64,0.00,,,0.00,meteohub,2013-11-05 13:24:00,
2013-11-05 08:29:00,45.5,33.6,30.40,SSE,163,13.0,24.0,63,0.00,,,0.00,meteohub,2013-11-05 13:29:00,
2013-11-05 08:34:00,45.7,33.8,30.39,South,169,9.0,24.0,63,0.00,,,0.00,meteohub,2013-11-05 13:34:00,
2013-11-05 08:39:00,45.9,34.0,30.39,SSE,167,23.0,24.0,63,0.00,,,0.00,meteohub,2013-11-05 13:39:00,
2013-11-05 08:44:00,46.0,34.2,30.39,SSE,165,20.0,26.0,63,0.00,,,0.00,meteohub,2013-11-05 13:44:00,
2013-11-05 08:49:00,46.2,34.3,30.40,South,172,14.0,26.0,63,0.00,,,0.00,meteohub,2013-11-05 13:49:00,
2013-11-05 08:54:00,46.6,34.7,30.40,SSE,159,19.0,26.0,63,0.00,,,0.00,meteohub,2013-11-05 13:54:00,
2013-11-05 08:59:00,46.8,34.5,30.40,South,178,10.0,26.0,62,0.00,,,0.00,meteohub,2013-11-05 13:59:00,
2013-11-05 09:04:00,46.9,34.5,30.40,South,181,14.0,26.0,62,0.00,,,0.00,meteohub,2013-11-05 14:04:00,
2013-11-05 09:09:00,47.1,34.7,30.39,SSW,199,11.0,26.0,62,0.00,,,0.00,meteohub,2013-11-05 14:09:00,
2013-11-05 09:14:00,47.3,34.9,30.39,South,175,15.0,26.0,62,0.00,,,0.00,meteohub,2013-11-05 14:14:00,
2013-11-05 09:20:00,47.5,35.1,30.39,South,174,18.0,26.0,62,0.00,,,0.00,meteohub,2013-11-05 14:20:00,
2013-11-05 09:25:00,47.7,35.2,30.38,South,175,12.0,26.0,62,0.00,,,0.00,meteohub,2013-11-05 14:25:00,
2013-11-05 09:30:00,47.7,35.2,30.38,SSE,167,13.0,23.0,62,0.00,,,0.00,meteohub,2013-11-05 14:30:00,
2013-11-05 09:35:00,47.7,35.2,30.38,SSE,167,13.0,23.0,62,0.00,,,0.00,meteohub,2013-11-05 14:35:00,
2013-11-05 09:40:00,47.5,35.1,30.38,South,180,18.0,25.0,62,0.00,,,0.00,meteohub,2013-11-05 14:40:00,
2013-11-05 09:45:00,47.5,35.1,30.38,South,178,13.0,26.0,62,0.00,,,0.00,meteohub,2013-11-05 14:45:00,
2013-11-05 09:50:00,47.5,35.1,30.38,SSE,157,15.0,26.0,62,0.00,,,0.00,meteohub,2013-11-05 14:50:00,
2013-11-05 09:55:00,47.5,35.1,30.38,SSE,153,18.0,26.0,62,0.00,,,0.00,meteohub,2013-11-05 14:55:00,
2013-11-05 10:01:00,47.7,35.2,30.38,SE,144,14.0,23.0,62,0.00,,,0.00,meteohub,2013-11-05 15:01:00,
2013-11-05 10:06:00,47.8,35.4,30.38,South,188,18.0,24.0,62,0.00,,,0.00,meteohub,2013-11-05 15:06:00,
2013-11-05 10:11:00,47.8,35.4,30.38,SSE,163,19.0,27.0,62,0.00,,,0.00,meteohub,2013-11-05 15:11:00,
2013-11-05 10:16:00,48.0,35.6,30.37,SSE,163,12.0,27.0,62,0.00,,,0.00,meteohub,2013-11-05 15:16:00,
2013-11-05 10:21:00,48.2,35.8,30.38,South,169,16.0,27.0,62,0.00,,,0.00,meteohub,2013-11-05 15:21:00,
2013-11-05 10:26:00,48.6,36.1,30.37,South,191,13.0,23.0,62,0.00,,,0.00,meteohub,2013-11-05 15:26:00,
2013-11-05 10:32:00,48.7,36.3,30.37,South,172,13.0,21.0,62,0.00,,,0.00,meteohub,2013-11-05 15:32:00,
2013-11-05 10:37:00,49.5,36.5,30.37,SSE,162,13.0,21.0,61,0.00,,,0.00,meteohub,2013-11-05 15:37:00,
2013-11-05 10:42:00,49.6,36.3,30.37,South,182,15.0,21.0,60,0.00,,,0.00,meteohub,2013-11-05 15:42:00,
2013-11-05 10:47:00,50.2,36.9,30.38,South,181,19.0,24.0,60,0.00,,,0.00,meteohub,2013-11-05 15:47:00,
2013-11-05 10:52:00,50.4,37.0,30.38,South,175,16.0,27.0,60,0.00,,,0.00,meteohub,2013-11-05 15:52:00,
2013-11-05 10:57:00,50.5,37.2,30.38,SSE,167,14.0,27.0,60,0.00,,,0.00,meteohub,2013-11-05 15:57:00,
2013-11-05 11:02:00,50.7,37.4,30.37,South,171,12.0,27.0,60,0.00,,,0.00,meteohub,2013-11-05 16:02:00,
2013-11-05 11:07:00,50.9,37.6,30.37,South,169,11.0,26.0,60,0.00,,,0.00,meteohub,2013-11-05 16:07:00,
2013-11-05 11:12:00,51.1,37.8,30.36,South,184,9.0,26.0,60,0.00,,,0.00,meteohub,2013-11-05 16:12:00,
2013-11-05 11:17:00,51.3,37.8,30.37,South,186,7.0,26.0,60,0.00,,,0.00,meteohub,2013-11-05 16:17:00,
2013-11-05 11:22:00,51.3,37.8,30.37,South,184,15.0,20.0,60,0.00,,,0.00,meteohub,2013-11-05 16:22:00,
2013-11-05 11:27:00,51.4,37.9,30.36,South,182,17.0,20.0,60,0.00,,,0.00,meteohub,2013-11-05 16:27:00,
2013-11-05 11:32:00,51.4,37.9,30.37,SSE,161,6.0,18.0,60,0.00,,,0.00,meteohub,2013-11-05 16:32:00,
2013-11-05 11:37:00,51.6,38.1,30.36,SSE,165,10.0,19.0,60,0.00,,,0.00,meteohub,2013-11-05 16:37:00,
2013-11-05 11:42:00,51.8,38.3,30.36,South,171,10.0,19.0,60,0.00,,,0.00,meteohub,2013-11-05 16:42:00,
2013-11-05 11:47:00,51.8,38.3,30.36,South,173,14.0,19.0,60,0.00,,,0.00,meteohub,2013-11-05 16:47:00,
2013-11-05 11:52:00,51.8,38.3,30.36,SSW,195,11.0,18.0,60,0.00,,,0.00,meteohub,2013-11-05 16:52:00,
2013-11-05 11:57:00,52.0,38.5,30.36,SSW,213,14.0,18.0,60,0.00,,,0.00,meteohub,2013-11-05 16:57:00,
2013-11-05 12:02:00,52.3,38.8,30.36,South,175,11.0,19.0,60,0.00,,,0.00,meteohub,2013-11-05 17:02:00,
2013-11-05 12:07:00,52.5,38.7,30.36,South,182,15.0,19.0,59,0.00,,,0.00,meteohub,2013-11-05 17:07:00,
2013-11-05 12:12:00,52.5,38.7,30.36,South,186,13.0,25.0,59,0.00,,,0.00,meteohub,2013-11-05 17:12:00,
2013-11-05 12:17:00,52.7,39.2,30.36,South,181,13.0,25.0,60,0.00,,,0.00,meteohub,2013-11-05 17:17:00,
2013-11-05 12:22:00,52.9,39.0,30.36,SSW,203,17.0,25.0,59,0.00,,,0.00,meteohub,2013-11-05 17:22:00,
2013-11-05 12:27:00,53.2,39.2,30.36,South,182,14.0,22.0,59,0.00,,,0.00,meteohub,2013-11-05 17:27:00,
2013-11-05 12:32:00,53.4,39.4,30.35,South,184,19.0,20.0,59,0.00,,,0.00,meteohub,2013-11-05 17:32:00,
2013-11-05 12:37:00,54.0,39.6,30.35,South,180,12.0,22.0,58,0.00,,,0.00,meteohub,2013-11-05 17:37:00,
2013-11-05 12:42:00,54.1,39.7,30.35,SSE,162,13.0,22.0,58,0.00,,,0.00,meteohub,2013-11-05 17:42:00,
2013-11-05 12:47:00,54.5,40.1,30.34,SSW,195,14.0,21.0,58,0.00,,,0.00,meteohub,2013-11-05 17:47:00,
2013-11-05 12:52:00,54.7,39.7,30.34,South,180,10.0,20.0,57,0.00,,,0.00,meteohub,2013-11-05 17:52:00,
2013-11-05 12:57:00,54.9,39.9,30.34,South,190,17.0,23.0,57,0.00,,,0.00,meteohub,2013-11-05 17:57:00,
2013-11-05 13:02:00,54.9,39.9,30.34,SSE,167,13.0,23.0,57,0.00,,,0.00,meteohub,2013-11-05 18:02:00,
2013-11-05 13:07:00,54.9,39.9,30.33,South,186,13.0,23.0,57,0.00,,,0.00,meteohub,2013-11-05 18:07:00,
2013-11-05 13:12:00,54.9,39.9,30.33,SSW,202,12.0,20.0,57,0.00,,,0.00,meteohub,2013-11-05 18:12:00,
2013-11-05 13:17:00,55.0,40.1,30.33,South,184,13.0,23.0,57,0.00,,,0.00,meteohub,2013-11-05 18:17:00,
2013-11-05 13:22:00,55.0,40.1,30.33,South,188,12.0,23.0,57,0.00,,,0.00,meteohub,2013-11-05 18:22:00,
2013-11-05 13:27:00,54.9,39.9,30.33,South,190,10.0,23.0,57,0.00,,,0.00,meteohub,2013-11-05 18:27:00,
2013-11-05 13:32:00,54.9,40.3,30.33,South,175,14.0,19.0,58,0.00,,,0.00,meteohub,2013-11-05 18:32:00,
2013-11-05 13:37:00,54.7,40.3,30.33,SSE,161,11.0,20.0,58,0.00,,,0.00,meteohub,2013-11-05 18:37:00,
2013-11-05 13:42:00,54.9,39.9,30.34,SSW,192,9.0,20.0,57,0.00,,,0.00,meteohub,2013-11-05 18:42:00,
2013-11-05 13:47:00,54.9,39.9,30.33,South,179,17.0,20.0,57,0.00,,,0.00,meteohub,2013-11-05 18:47:00,
2013-11-05 13:52:00,54.7,40.3,30.33,South,178,13.0,23.0,58,0.00,,,0.00,meteohub,2013-11-05 18:52:00,
2013-11-05 13:57:00,54.5,39.6,30.33,SSE,166,7.0,23.0,57,0.00,,,0.00,meteohub,2013-11-05 18:57:00,
2013-11-05 14:02:00,54.5,40.1,30.32,SSW,193,11.0,23.0,58,0.00,,,0.00,meteohub,2013-11-05 19:02:00,
2013-11-05 14:07:00,54.3,39.4,30.32,SSW,207,7.0,19.0,57,0.00,,,0.00,meteohub,2013-11-05 19:07:00,
2013-11-05 14:12:00,54.3,39.4,30.32,South,180,11.0,19.0,57,0.00,,,0.00,meteohub,2013-11-05 19:12:00,
2013-11-05 14:17:00,54.3,39.4,30.32,South,171,14.0,21.0,57,0.00,,,0.00,meteohub,2013-11-05 19:17:00,
2013-11-05 14:22:00,54.3,39.4,30.32,SSE,162,10.0,21.0,57,0.00,,,0.00,meteohub,2013-11-05 19:22:00,
2013-11-05 14:27:00,54.7,39.7,30.32,South,184,11.0,21.0,57,0.00,,,0.00,meteohub,2013-11-05 19:27:00,
2013-11-05 14:32:00,54.7,39.7,30.32,SSE,155,11.0,19.0,57,0.00,,,0.00,meteohub,2013-11-05 19:32:00,
2013-11-05 14:37:00,54.7,39.7,30.32,South,177,14.0,19.0,57,0.00,,,0.00,meteohub,2013-11-05 19:37:00,
2013-11-05 14:42:00,54.9,39.9,30.32,South,173,14.0,19.0,57,0.00,,,0.00,meteohub,2013-11-05 19:42:00,
2013-11-05 14:47:00,54.9,39.9,30.32,SSE,161,7.0,19.0,57,0.00,,,0.00,meteohub,2013-11-05 19:47:00,
2013-11-05 14:52:00,55.2,39.7,30.32,South,181,7.0,19.0,56,0.00,,,0.00,meteohub,2013-11-05 19:52:00,
2013-11-05 14:57:00,55.2,39.7,30.32,SSE,150,12.0,19.0,56,0.00,,,0.00,meteohub,2013-11-05 19:57:00,
2013-11-05 15:02:00,55.4,39.9,30.32,South,190,12.0,19.0,56,0.00,,,0.00,meteohub,2013-11-05 20:02:00,
2013-11-05 15:07:00,55.6,40.6,30.31,SSE,165,11.0,21.0,57,0.00,,,0.00,meteohub,2013-11-05 20:07:00,
2013-11-05 15:12:00,55.6,40.1,30.32,SSW,192,7.0,21.0,56,0.00,,,0.00,meteohub,2013-11-05 20:12:00,
2013-11-05 15:17:00,55.6,40.6,30.32,South,178,9.0,21.0,57,0.00,,,0.00,meteohub,2013-11-05 20:17:00,
2013-11-05 15:22:00,55.6,40.6,30.31,SSE,154,11.0,19.0,57,0.00,,,0.00,meteohub,2013-11-05 20:22:00,
2013-11-05 15:27:00,55.6,40.6,30.31,SSE,155,9.0,19.0,57,0.00,,,0.00,meteohub,2013-11-05 20:27:00,
2013-11-05 15:32:00,55.6,40.6,30.31,SSW,209,10.0,17.0,57,0.00,,,0.00,meteohub,2013-11-05 20:32:00,
2013-11-05 15:37:00,55.8,40.8,30.31,South,188,14.0,17.0,57,0.00,,,0.00,meteohub,2013-11-05 20:37:00,
2013-11-05 15:42:00,55.8,40.8,30.31,SSW,192,15.0,16.0,57,0.00,,,0.00,meteohub,2013-11-05 20:42:00,
2013-11-05 15:47:00,55.8,40.8,30.31,SSW,199,9.0,18.0,57,0.00,,,0.00,meteohub,2013-11-05 20:47:00,
2013-11-05 15:52:00,55.9,41.0,30.30,SSW,196,10.0,18.0,57,0.00,,,0.00,meteohub,2013-11-05 20:52:00,
2013-11-05 15:57:00,55.9,41.0,30.30,SSE,167,12.0,19.0,57,0.00,,,0.00,meteohub,2013-11-05 20:57:00,
2013-11-05 16:02:00,55.9,41.0,30.30,South,186,16.0,19.0,57,0.00,,,0.00,meteohub,2013-11-05 21:02:00,
2013-11-05 16:07:00,55.9,41.0,30.30,SSW,194,6.0,20.0,57,0.00,,,0.00,meteohub,2013-11-05 21:07:00,
2013-11-05 16:12:00,55.9,41.0,30.30,SSE,153,5.0,20.0,57,0.00,,,0.00,meteohub,2013-11-05 21:12:00,
2013-11-05 16:17:00,55.9,41.0,30.30,SSE,148,11.0,16.0,57,0.00,,,0.00,meteohub,2013-11-05 21:17:00,
2013-11-05 16:22:00,55.9,41.0,30.30,SSW,195,7.0,14.0,57,0.00,,,0.00,meteohub,2013-11-05 21:22:00,
2013-11-05 16:27:00,55.9,41.0,30.30,SSW,205,6.0,15.0,57,0.00,,,0.00,meteohub,2013-11-05 21:27:00,
2013-11-05 16:32:00,55.9,41.0,30.31,South,175,12.0,15.0,57,0.00,,,0.00,meteohub,2013-11-05 21:32:00,
2013-11-05 16:37:00,55.8,40.8,30.30,South,182,5.0,15.0,57,0.00,,,0.00,meteohub,2013-11-05 21:37:00,
2013-11-05 16:42:00,55.8,40.8,30.30,SE,143,8.0,16.0,57,0.00,,,0.00,meteohub,2013-11-05 21:42:00,
2013-11-05 16:47:00,55.6,40.6,30.30,South,172,7.0,16.0,57,0.00,,,0.00,meteohub,2013-11-05 21:47:00,
2013-11-05 16:52:00,55.6,40.6,30.30,South,176,7.0,18.0,57,0.00,,,0.00,meteohub,2013-11-05 21:52:00,
2013-11-05 16:57:00,55.2,40.6,30.30,South,190,4.0,18.0,58,0.00,,,0.00,meteohub,2013-11-05 21:57:00,
2013-11-05 17:02:00,55.2,41.2,30.30,SSE,159,6.0,18.0,59,0.00,,,0.00,meteohub,2013-11-05 22:02:00,
2013-11-05 17:07:00,55.0,41.0,30.30,SSE,168,6.0,15.0,59,0.00,,,0.00,meteohub,2013-11-05 22:07:00,
2013-11-05 17:12:00,55.0,41.0,30.30,South,179,6.0,14.0,59,0.00,,,0.00,meteohub,2013-11-05 22:12:00,
2013-11-05 17:17:00,54.9,40.8,30.31,South,170,5.0,13.0,59,0.00,,,0.00,meteohub,2013-11-05 22:17:00,
2013-11-05 17:22:00,54.9,40.3,30.30,SSE,166,3.0,12.0,58,0.00,,,0.00,meteohub,2013-11-05 22:22:00,
2013-11-05 17:27:00,55.0,40.5,30.31,SW,221,2.0,7.0,58,0.00,,,0.00,meteohub,2013-11-05 22:27:00,
2013-11-05 17:32:00,55.0,41.0,30.31,SW,216,3.0,7.0,59,0.00,,,0.00,meteohub,2013-11-05 22:32:00,
2013-11-05 17:37:00,54.9,40.8,30.31,SW,227,3.0,6.0,59,0.00,,,0.00,meteohub,2013-11-05 22:37:00,
2013-11-05 17:42:00,54.9,40.8,30.31,SW,236,5.0,6.0,59,0.00,,,0.00,meteohub,2013-11-05 22:42:00,
2013-11-05 17:47:00,54.9,40.8,30.31,SW,234,4.0,6.0,59,0.00,,,0.00,meteohub,2013-11-05 22:47:00,
2013-11-05 17:52:00,54.9,40.3,30.31,SSW,202,3.0,6.0,58,0.00,,,0.00,meteohub,2013-11-05 22:52:00,
2013-11-05 17:57:00,54.9,40.3,30.31,SW,215,2.0,7.0,58,0.00,,,0.00,meteohub,2013-11-05 22:57:00,
2013-11-05 18:02:00,54.9,40.3,30.31,SSW,213,1.0,7.0,58,0.00,,,0.00,meteohub,2013-11-05 23:02:00,
2013-11-05 18:07:00,54.9,40.3,30.30,SSW,200,2.0,7.0,58,0.00,,,0.00,meteohub,2013-11-05 23:07:00,
2013-11-05 18:12:00,54.9,40.3,30.31,SSE,155,4.0,5.0,58,0.00,,,0.00,meteohub,2013-11-05 23:12:00,
2013-11-05 18:17:00,54.9,40.3,30.31,SSW,205,3.0,7.0,58,0.00,,,0.00,meteohub,2013-11-05 23:17:00,
2013-11-05 18:22:00,54.9,40.3,30.31,South,174,5.0,7.0,58,0.00,,,0.00,meteohub,2013-11-05 23:22:00,
2013-11-05 18:27:00,54.9,40.3,30.31,West,265,2.0,12.0,58,0.00,,,0.00,meteohub,2013-11-05 23:27:00,
2013-11-05 18:32:00,54.9,39.9,30.31,South,190,7.0,12.0,57,0.00,,,0.00,meteohub,2013-11-05 23:32:00,
2013-11-05 18:37:00,54.9,39.9,30.31,SSW,211,10.0,12.0,57,0.00,,,0.00,meteohub,2013-11-05 23:37:00,
2013-11-05 18:42:00,54.9,40.3,30.31,SSE,154,13.0,14.0,58,0.00,,,0.00,meteohub,2013-11-05 23:42:00,
2013-11-05 18:47:00,54.9,40.3,30.32,SSW,211,5.0,17.0,58,0.00,,,0.00,meteohub,2013-11-05 23:47:00,
2013-11-05 18:52:00,54.9,40.3,30.31,SSW,202,9.0,17.0,58,0.00,,,0.00,meteohub,2013-11-05 23:52:00,
2013-11-05 18:57:00,54.9,39.9,30.31,South,177,6.0,17.0,57,0.00,,,0.00,meteohub,2013-11-05 23:57:00,
2013-11-05 19:02:00,54.7,40.3,30.30,South,184,6.0,13.0,58,0.00,,,0.00,meteohub,2013-11-06 00:02:00,
2013-11-05 19:07:00,54.7,40.3,30.30,SSW,195,15.0,15.0,58,0.00,,,0.00,meteohub,2013-11-06 00:07:00,
2013-11-05 19:12:00,54.7,39.7,30.30,South,184,12.0,16.0,57,0.00,,,0.00,meteohub,2013-11-06 00:12:00,
2013-11-05 19:17:00,54.5,39.6,30.30,South,183,7.0,18.0,57,0.00,,,0.00,meteohub,2013-11-06 00:17:00,
2013-11-05 19:22:00,54.3,39.9,30.30,SE,138,7.0,18.0,58,0.00,,,0.00,meteohub,2013-11-06 00:22:00,
2013-11-05 19:27:00,54.3,39.9,30.29,South,175,11.0,18.0,58,0.00,,,0.00,meteohub,2013-11-06 00:27:00,
2013-11-05 19:32:00,54.3,39.4,30.28,SSE,153,9.0,16.0,57,0.00,,,0.00,meteohub,2013-11-06 00:32:00,
2013-11-05 19:37:00,54.1,39.7,30.28,SE,134,9.0,21.0,58,0.00,,,0.00,meteohub,2013-11-06 00:37:00,
2013-11-05 19:42:00,54.1,39.2,30.27,South,186,6.0,21.0,57,0.00,,,0.00,meteohub,2013-11-06 00:42:00,
2013-11-05 19:47:00,54.1,39.2,30.27,South,181,8.0,19.0,57,0.00,,,0.00,meteohub,2013-11-06 00:47:00,
2013-11-05 19:52:00,54.1,39.2,30.26,SSE,166,12.0,17.0,57,0.00,,,0.00,meteohub,2013-11-06 00:52:00,
2013-11-05 19:57:00,54.1,39.2,30.27,South,185,14.0,18.0,57,0.00,,,0.00,meteohub,2013-11-06 00:57:00,
2013-11-05 20:02:00,54.0,39.0,30.26,SE,141,13.0,18.0,57,0.00,,,0.00,meteohub,2013-11-06 01:02:00,
2013-11-05 20:07:00,54.0,38.7,30.26,South,177,9.0,20.0,56,0.00,,,0.00,meteohub,2013-11-06 01:07:00,
2013-11-05 20:12:00,54.0,38.7,30.25,SSW,213,6.0,26.0,56,0.00,,,0.00,meteohub,2013-11-06 01:12:00,
2013-11-05 20:17:00,53.8,38.5,30.26,South,172,12.0,26.0,56,0.00,,,0.00,meteohub,2013-11-06 01:17:00,
2013-11-05 20:22:00,53.8,38.5,30.27,SE,143,14.0,26.0,56,0.00,,,0.00,meteohub,2013-11-06 01:22:00,
2013-11-05 20:27:00,53.8,38.5,30.26,South,187,9.0,22.0,56,0.00,,,0.00,meteohub,2013-11-06 01:27:00,
2013-11-05 20:32:00,53.4,38.5,30.26,SSE,150,11.0,22.0,57,0.00,,,0.00,meteohub,2013-11-06 01:32:00,
2013-11-05 20:37:00,53.4,38.1,30.25,South,169,9.0,22.0,56,0.00,,,0.00,meteohub,2013-11-06 01:37:00,
2013-11-05 20:42:00,53.4,38.1,30.25,South,175,11.0,20.0,56,0.00,,,0.00,meteohub,2013-11-06 01:42:00,
2013-11-05 20:47:00,53.4,38.1,30.25,South,185,14.0,22.0,56,0.00,,,0.00,meteohub,2013-11-06 01:47:00,
2013-11-05 20:52:00,53.2,37.9,30.26,SSW,209,8.0,22.0,56,0.00,,,0.00,meteohub,2013-11-06 01:52:00,
2013-11-05 20:57:00,53.2,38.5,30.27,SSW,197,5.0,22.0,57,0.00,,,0.00,meteohub,2013-11-06 01:57:00,
2013-11-05 21:02:00,53.1,37.8,30.26,SSE,168,10.0,17.0,56,0.00,,,0.00,meteohub,2013-11-06 02:02:00,
2013-11-05 21:07:00,53.1,37.8,30.27,South,189,17.0,22.0,56,0.00,,,0.00,meteohub,2013-11-06 02:07:00,
2013-11-05 21:12:00,52.9,37.6,30.27,SSW,196,24.0,24.0,56,0.00,,,0.00,meteohub,2013-11-06 02:12:00,
2013-11-05 21:17:00,52.7,37.4,30.26,SSE,168,13.0,24.0,56,0.00,,,0.00,meteohub,2013-11-06 02:17:00,
2013-11-05 21:22:00,52.5,37.2,30.26,SE,143,10.0,24.0,56,0.00,,,0.00,meteohub,2013-11-06 02:22:00,
2013-11-05 21:27:00,52.3,37.0,30.27,SSW,194,13.0,24.0,56,0.00,,,0.00,meteohub,2013-11-06 02:27:00,
2013-11-05 21:32:00,52.3,37.6,30.26,SSW,196,11.0,20.0,57,0.00,,,0.00,meteohub,2013-11-06 02:32:00,
2013-11-05 21:37:00,52.2,36.9,30.27,South,174,12.0,20.0,56,0.00,,,0.00,meteohub,2013-11-06 02:37:00,
2013-11-05 21:42:00,52.0,36.9,30.26,South,176,10.0,18.0,56,0.00,,,0.00,meteohub,2013-11-06 02:42:00,
2013-11-05 21:47:00,52.0,36.9,30.26,SSE,168,6.0,17.0,56,0.00,,,0.00,meteohub,2013-11-06 02:47:00,
2013-11-05 21:52:00,51.8,36.7,30.26,South,186,9.0,17.0,56,0.00,,,0.00,meteohub,2013-11-06 02:52:00,
2013-11-05 21:58:00,52.0,36.9,30.27,SSE,167,10.0,17.0,56,0.00,,,0.00,meteohub,2013-11-06 02:58:00,
2013-11-05 22:03:00,51.8,36.1,30.26,South,173,10.0,22.0,55,0.00,,,0.00,meteohub,2013-11-06 03:03:00,
2013-11-05 22:08:00,51.6,36.5,30.26,SSE,156,8.0,22.0,56,0.00,,,0.00,meteohub,2013-11-06 03:08:00,
2013-11-05 22:13:00,51.6,36.0,30.26,SSE,148,11.0,22.0,55,0.00,,,0.00,meteohub,2013-11-06 03:13:00,
2013-11-05 22:18:00,51.8,36.1,30.26,SSW,192,12.0,19.0,55,0.00,,,0.00,meteohub,2013-11-06 03:18:00,
2013-11-05 22:23:00,51.6,36.5,30.26,South,179,13.0,24.0,56,0.00,,,0.00,meteohub,2013-11-06 03:23:00,
2013-11-05 22:28:00,51.6,35.6,30.25,SSE,161,15.0,24.0,54,0.00,,,0.00,meteohub,2013-11-06 03:28:00,
2013-11-05 22:33:00,51.6,36.0,30.25,SSE,162,14.0,25.0,55,0.00,,,0.00,meteohub,2013-11-06 03:33:00,
2013-11-05 22:38:00,51.6,36.0,30.25,South,172,9.0,25.0,55,0.00,,,0.00,meteohub,2013-11-06 03:38:00,
2013-11-05 22:44:00,51.6,36.0,30.25,SSW,213,11.0,25.0,55,0.00,,,0.00,meteohub,2013-11-06 03:44:00,
2013-11-05 22:49:00,51.6,35.6,30.25,SSW,198,16.0,24.0,54,0.00,,,0.00,meteohub,2013-11-06 03:49:00,
2013-11-05 22:54:00,51.6,35.6,30.24,South,171,15.0,24.0,54,0.00,,,0.00,meteohub,2013-11-06 03:54:00,
2013-11-05 22:59:00,51.6,35.1,30.24,South,177,14.0,24.0,53,0.00,,,0.00,meteohub,2013-11-06 03:59:00,
2013-11-05 23:04:00,51.6,35.1,30.25,South,190,15.0,24.0,53,0.00,,,0.00,meteohub,2013-11-06 04:04:00,
2013-11-05 23:09:00,51.4,35.4,30.24,SSW,207,12.0,22.0,54,0.00,,,0.00,meteohub,2013-11-06 04:09:00,
2013-11-05 23:14:00,51.4,34.9,30.24,SSW,199,10.0,22.0,53,0.00,,,0.00,meteohub,2013-11-06 04:14:00,
2013-11-05 23:19:00,51.4,34.9,30.24,SSE,150,12.0,20.0,53,0.00,,,0.00,meteohub,2013-11-06 04:19:00,
2013-11-05 23:24:00,51.4,34.9,30.23,SSE,162,13.0,20.0,53,0.00,,,0.00,meteohub,2013-11-06 04:24:00,
2013-11-05 23:30:00,51.3,34.7,30.23,SSE,167,8.0,20.0,53,0.00,,,0.00,meteohub,2013-11-06 04:30:00,
2013-11-05 23:35:00,51.3,34.7,30.23,South,190,12.0,21.0,53,0.00,,,0.00,meteohub,2013-11-06 04:35:00,
2013-11-05 23:40:00,51.4,34.9,30.23,South,171,17.0,23.0,53,0.00,,,0.00,meteohub,2013-11-06 04:40:00,
2013-11-05 23:45:00,51.4,34.9,30.23,SSE,159,15.0,23.0,53,0.00,,,0.00,meteohub,2013-11-06 04:45:00,
2013-11-05 23:50:00,51.4,34.9,30.23,South,175,19.0,23.0,53,0.00,,,0.00,meteohub,2013-11-06 04:50:00,
2013-11-05 23:55:00,51.3,34.7,30.23,South,175,11.0,21.0,53,0.00,,,0.00,meteohub,2013-11-06 04:55:00,